Regional Weather Roundup
Issued by NWS

Home | Current Version | Previous Version | Text Only | Print | Product List | Glossary Off
Versions: 1 2 3 4 5 6 7 8 9 10 11 12 13 14 15 16 17 18 19 20 21 22 23 24 25 26 27 28 29 30 31 32 33 34 35 36 37 38 39 40 41 42 43 44 45 46 47 48 49 50

000
ASUS43 KLSX 251259
RWRMO

WEATHER SUMMARY FOR MISSOURI
NATIONAL WEATHER SERVICE SPRINGFIELD MO
700 AM CST TUE NOV 25 2014

NOTE: "FAIR" INDICATES FEW OR NO CLOUDS BELOW 12,000 FEET WITH NO
       SIGNIFICANT WEATHER AND/OR OBSTRUCTIONS TO VISIBILITY.
       CURRENT SKY AND/OR WEATHER CONDITIONS ARE NOT AVAILABLE FOR
       CHILLICOTHE AND FARMINGTON.

MOZ001>031-035>038-043-044-053-054-251400-
...NORTHERN AND WESTERN MISSOURI...

CITY           SKY/WX    TMP DP  RH WIND       PRES   REMARKS
KANSAS CTY INT CLEAR     21  11  65 W5        30.18S WCI  15
KANSAS C DTWN  CLEAR     25  10  53 W3        30.21R
LEE`S SUMMIT   CLEAR     23  11  60 W3        30.20R
ST JOSEPH      CLEAR     18  11  74 CALM      30.19F
CHILLICOTHE      N/A     23  13  65 NW6       30.19R WCI  16
KIRKSVILLE     CLEAR     20  17  88 NW7       30.13R WCI  11

$$
MOZ066>068-077>081-088>096-101>105-251400-
...SOUTHWEST MISSOURI...

CITY           SKY/WX    TMP DP  RH WIND       PRES   REMARKS
SPRINGFIELD    CLEAR     24  13  62 NW5       30.19R WCI  18
JOPLIN         CLEAR     23  15  71 NW6       30.24R WCI  16

$$
MOZ032>034-039>042-045>050-055>058-069>072-251400-
...CENTRAL MISSOURI...

CITY           SKY/WX    TMP DP  RH WIND       PRES   REMARKS
COLUMBIA       CLEAR     24  18  77 W10       30.16R WCI  14
JEFFERSON CITY CLEAR     25  18  74 W6        30.20R WCI  18
ROLLA          CLEAR     24  18  77 W8        30.13R WCI  15
SEDALIA        CLEAR     25  15  66 W7        30.19R WCI  17
WARRENSBURG    CLEAR     23  14  68 W5        30.20S WCI  17
OSAGE BEACH    CLEAR     27  16  63 NW6       30.18R WCI  20

$$
MOZ051-052-059>065-251400-
...EAST CENTRAL MISSOURI...

CITY           SKY/WX    TMP DP  RH WIND       PRES   REMARKS
ST LOUIS INTL  MOCLDY    31  21  66 NW10      30.14R WCI  22
SPIRIT OF STL  PTCLDY    28  20  71 W9        30.15R WCI  19
ST CHARLES     CLOUDY    30  22  72 W13       30.14R WCI  20

$$
MOZ072>076-082>087-097>100-106>115-251400-
...SOUTH CENTRAL AND SOUTHEAST MISSOURI...

CITY           SKY/WX    TMP DP  RH WIND       PRES   REMARKS
CAPE GIRARDEAU CLEAR     29  26  89 W5        30.16R WCI  24
FARMINGTON     CLEAR     27  19  74 W7        30.14R WCI  19
POPLAR BLUFF   CLEAR     30  22  72 W6        30.18R WCI  24
WEST PLAINS    CLEAR     24  16  71 W5        30.17R WCI  18

$$


USA.gov is the U.S. government's official web portal to all federal, state and local government web resources and services.